STARLINK-35424

Last updated on Tue Dec 16 2025 00:02:05 GMT+0000 (Coordinated Universal Time)

1 66460U 25262E 25349.23190043 .00049303 00000+0 11776-2 0 9996 2 66460 43.0002 57.1328 0001406 284.5625 75.5076 15.40758740 5941
UTC large
Height (km)
Speed (km/s)
/
Latitude / Longitude
Inclination (degrees)
Orbital Period (minutes)
Azimuth
Elevation
Range (km)
Doppler Factor

Next 0 passes for location: London (51.5072 / 0.1276)

Sorry there are no passes over London.